Mount Pleasant, TX

2:44 PM CDT on May 26, 2018 (GMT -0500)
Mount Pleasant

Weather History for KOSA - March, 2013

Change the Weather History Date:

Wednesday, March 6, 2013

  Actual Average (WUND) Record (WUND)
Temperature  
Mean Temperature 46 °F -  
Max Temperature 60 °F - - (-1)
Min Temperature 32 °F - - (-1)
Degree Days  
Heating Degree Days 19    
Moisture  
Dew Point 25 °F    
Average Humidity 49    
Maximum Humidity 80    
Minimum Humidity 22    
Precipitation  
Precipitation 0.00 in - - ()
Sea Level Pressure  
Sea Level Pressure 30.35 in    
Wind  
Wind Speed 5 mph (NW)    
Max Wind Speed 12 mph    
Max Gust Speed 16 mph    
Visibility 10 miles    
Events      
Averages and records for this station are not official NWS values.
T = Trace of Precipitation, MM = Missing Value Source: NWS Daily Summary

Daily Weather History Graph

Daily Weather History Graph

Search for Another Location

Airport or City:

Astronomy

Mar. 06, 2013 Rise Set
Actual Time 6:41 AM CST 6:21 PM CST
Civil Twilight 6:16 AM CST 6:45 PM CST
Nautical Twilight 5:48 AM CST 7:14 PM CST
Astronomical Twilight 5:19 AM CST 7:43 PM CST
Moon 2:38 AM CST (3/6) 1:16 PM CST (3/6)
Length of Visible Light 12h 29m
Length of Day
11h 39m
Waning Crescent, 29% of the Moon is Illuminated
Mar 6
Waning Crescent
Mar 11
New
Mar 19
First Quarter
Mar 27
Full
Apr 2
Last Quarter

Hourly Weather History & Observations

Time (CST) Temp. Windchill Dew Point Humidity Pressure Visibility Wind Dir Wind Speed Gust Speed Precip Events Conditions
12:15 AM 41.0 °F 39.0 °F 24.8 °F 53% 30.36 in 10.0 mi WNW 3.5 mph - N/A   Clear
12:35 AM 39.2 °F 37.0 °F 24.8 °F 56% 30.37 in 10.0 mi WNW 3.5 mph - N/A   Clear
12:55 AM 37.4 °F - 26.6 °F 65% 30.37 in 10.0 mi Calm Calm - N/A   Clear
1:15 AM 37.4 °F 32.1 °F 24.8 °F 60% 30.37 in 10.0 mi NW 6.9 mph - N/A   Clear
1:35 AM 39.2 °F 33.6 °F 24.8 °F 56% 30.38 in 10.0 mi WNW 8.1 mph - N/A   Clear
1:55 AM 37.4 °F 30.8 °F 24.8 °F 60% 30.38 in 10.0 mi WNW 9.2 mph - N/A   Clear
2:15 AM 37.4 °F 32.1 °F 26.6 °F 65% 30.37 in 10.0 mi NW 6.9 mph - N/A   Clear
2:35 AM 37.4 °F 29.8 °F 26.6 °F 65% 30.38 in 10.0 mi NW 11.5 mph - N/A   Clear
2:55 AM 37.4 °F 30.8 °F 26.6 °F 65% 30.38 in 10.0 mi NW 9.2 mph - N/A   Clear
3:15 AM 37.4 °F 32.1 °F 26.6 °F 65% 30.38 in 10.0 mi NW 6.9 mph - N/A   Clear
3:35 AM 35.6 °F 29.9 °F 26.6 °F 70% 30.38 in 10.0 mi NW 6.9 mph - N/A   Clear
3:55 AM 35.6 °F 28.6 °F 26.6 °F 70% 30.39 in 10.0 mi NW 9.2 mph - N/A   Clear
4:15 AM 35.6 °F 29.2 °F 26.6 °F 70% 30.39 in 10.0 mi NW 8.1 mph - N/A   Clear
4:35 AM 35.6 °F 28.0 °F 26.6 °F 70% 30.39 in 10.0 mi NW 10.4 mph - N/A   Clear
4:55 AM 35.6 °F 28.6 °F 26.6 °F 70% 30.40 in 10.0 mi NW 9.2 mph - N/A   Clear
5:15 AM 35.6 °F 28.6 °F 26.6 °F 70% 30.40 in 10.0 mi NW 9.2 mph - N/A   Clear
5:35 AM 35.6 °F 28.6 °F 26.6 °F 70% 30.40 in 10.0 mi NW 9.2 mph - N/A   Clear
5:55 AM 35.6 °F 29.2 °F 26.6 °F 70% 30.41 in 10.0 mi NW 8.1 mph - N/A   Clear
6:15 AM 33.8 °F 27.7 °F 26.6 °F 75% 30.41 in 10.0 mi NNW 6.9 mph - N/A   Clear
6:35 AM 32.0 °F 26.4 °F 26.6 °F 80% 30.41 in 10.0 mi NNW 5.8 mph - N/A   Clear
6:55 AM 32.0 °F 25.6 °F 26.6 °F 80% 30.42 in 10.0 mi NNW 6.9 mph - N/A   Clear
7:15 AM 33.8 °F 28.6 °F 26.6 °F 75% 30.42 in 10.0 mi NNW 5.8 mph - N/A   Clear
7:35 AM 35.6 °F 27.5 °F 26.6 °F 70% 30.43 in 10.0 mi NNW 11.5 mph - N/A   Clear
7:55 AM 37.4 °F 31.4 °F 26.6 °F 65% 30.44 in 10.0 mi North 8.1 mph - N/A   Clear
8:15 AM 37.4 °F 29.8 °F 24.8 °F 60% 30.44 in 10.0 mi North 11.5 mph 16.1 mph N/A   Clear
8:35 AM 39.2 °F 34.2 °F 24.8 °F 56% 30.45 in 10.0 mi North 6.9 mph - N/A   Clear
8:55 AM 41.0 °F 37.1 °F 23.0 °F 49% 30.46 in 10.0 mi North 5.8 mph - N/A   Clear
9:15 AM 41.0 °F 38.0 °F 23.0 °F 49% 30.46 in 10.0 mi North 4.6 mph - N/A   Clear
9:35 AM 42.8 °F 39.3 °F 21.2 °F 42% 30.46 in 10.0 mi NNE 5.8 mph - N/A   Clear
9:55 AM 44.6 °F 41.4 °F 21.2 °F 39% 30.46 in 10.0 mi NNE 5.8 mph - N/A   Clear
10:15 AM 44.6 °F 42.2 °F 21.2 °F 39% 30.46 in 10.0 mi NNE 4.6 mph - N/A   Clear
10:35 AM 46.4 °F 45.2 °F 21.2 °F 37% 30.46 in 10.0 mi NNE 3.5 mph - N/A   Clear
10:55 AM 46.4 °F - 21.2 °F 37% 30.44 in 10.0 mi Calm Calm - N/A   Clear
11:15 AM 48.2 °F - 21.2 °F 34% 30.43 in 10.0 mi Calm Calm - N/A   Clear
11:35 AM 50.0 °F - 23.0 °F 35% 30.42 in 10.0 mi Calm Calm - N/A   Clear
11:55 AM 51.8 °F - 21.2 °F 30% 30.41 in 10.0 mi WNW 4.6 mph - N/A   Clear
12:15 PM 51.8 °F - 23.0 °F 33% 30.40 in 10.0 mi WSW 3.5 mph - N/A   Clear
12:35 PM 53.6 °F - 23.0 °F 30% 30.39 in 10.0 mi WNW 3.5 mph - N/A   Clear
12:55 PM 53.6 °F - 21.2 °F 28% 30.38 in 10.0 mi NW 3.5 mph - N/A   Clear
1:15 PM 55.4 °F - 24.8 °F 31% 30.36 in 10.0 mi WSW 3.5 mph - N/A   Clear
1:35 PM 55.4 °F - 23.0 °F 29% 30.35 in 10.0 mi SW 8.1 mph - N/A   Clear
1:55 PM 55.4 °F - 23.0 °F 29% 30.34 in 10.0 mi SW 5.8 mph - N/A   Clear
2:15 PM 59.0 °F - 23.0 °F 25% 30.33 in 10.0 mi SW 6.9 mph - N/A   Clear
2:35 PM 59.0 °F - 23.0 °F 25% 30.33 in 10.0 mi WSW 10.4 mph - N/A   Clear
2:55 PM 59.0 °F - 23.0 °F 25% 30.32 in 10.0 mi SW 3.5 mph - N/A   Clear
3:15 PM 59.0 °F - 19.4 °F 22% 30.31 in 10.0 mi NW 4.6 mph - N/A   Clear
3:35 PM 59.0 °F - 21.2 °F 23% 30.31 in 10.0 mi North 3.5 mph - N/A   Clear
4:15 PM 60.8 °F - 21.2 °F 22% 30.30 in 10.0 mi WNW 3.5 mph - N/A   Clear
4:35 PM 59.0 °F - 21.2 °F 23% 30.30 in 10.0 mi Calm Calm - N/A   Clear
4:55 PM 59.0 °F - 19.4 °F 22% 30.29 in 10.0 mi West 4.6 mph - N/A   Clear
5:15 PM 59.0 °F - 19.4 °F 22% 30.28 in 10.0 mi Calm Calm - N/A   Clear
5:35 PM 55.4 °F - 19.4 °F 25% 30.28 in 10.0 mi Calm Calm - N/A   Clear
5:55 PM 55.4 °F - 19.4 °F 25% 30.28 in 10.0 mi Calm Calm - N/A   Clear
6:15 PM 55.4 °F - 19.4 °F 25% 30.28 in 10.0 mi Calm Calm - N/A   Clear
6:35 PM 55.4 °F - 17.6 °F 23% 30.27 in 10.0 mi Calm Calm - N/A   Clear
6:55 PM 53.6 °F - 19.4 °F 26% 30.27 in 10.0 mi Calm Calm - N/A   Clear
7:15 PM 50.0 °F - 23.0 °F 35% 30.27 in 10.0 mi Calm Calm - N/A   Clear
7:35 PM 50.0 °F - 24.8 °F 37% 30.27 in 10.0 mi Calm Calm - N/A   Clear
7:55 PM 46.4 °F - 23.0 °F 40% 30.26 in 10.0 mi Calm Calm - N/A   Clear
8:15 PM 48.2 °F - 26.6 °F 43% 30.26 in 10.0 mi Calm Calm - N/A   Clear
8:35 PM 46.4 °F - 30.2 °F 53% 30.27 in 10.0 mi Calm Calm - N/A   Clear
8:55 PM 46.4 °F - 30.2 °F 53% 30.28 in 10.0 mi Calm Calm - N/A   Clear
9:15 PM 46.4 °F - 30.2 °F 53% 30.28 in 10.0 mi Calm Calm - N/A   Clear
9:35 PM 44.6 °F - 30.2 °F 57% 30.28 in 10.0 mi Calm Calm - N/A   Clear
9:55 PM 42.8 °F - 32.0 °F 66% 30.28 in 10.0 mi Calm Calm - N/A   Clear
10:15 PM 41.0 °F - 33.8 °F 76% 30.27 in 10.0 mi Calm Calm - N/A   Clear
10:35 PM 42.8 °F - 32.0 °F 66% 30.27 in 10.0 mi Calm Calm - N/A   Clear
10:55 PM 42.8 °F - 30.2 °F 61% 30.27 in 10.0 mi Calm Calm - N/A   Clear
11:15 PM 41.0 °F - 30.2 °F 65% 30.26 in 10.0 mi Calm Calm - N/A   Clear
11:35 PM 41.0 °F - 32.0 °F 70% 30.26 in 10.0 mi Calm Calm - N/A   Clear
11:55 PM 41.0 °F - 28.4 °F 61% 30.26 in 10.0 mi Calm Calm - N/A   Clear